Time,TemperatureF,DewpointF,PressureIn,WindDirection,WindDirectionDegrees,WindSpeedMPH,WindSpeedGustMPH,Humidity,HourlyPrecipIn,Conditions,Clouds,dailyrainin,SoftwareType,DateUTC
2013-02-21 00:00:00,66.6,61.5,30.10,NW,315,0.0,4.0,84,0.00,,,0.00,meteohub,2013-02-21 05:00:00,
2013-02-21 00:01:00,66.6,61.5,30.10,NW,315,0.0,3.0,84,0.00,,,0.00,meteohub,2013-02-21 05:01:00,
2013-02-21 00:02:00,66.6,61.5,30.10,NW,315,0.0,3.0,84,0.00,,,0.00,meteohub,2013-02-21 05:02:00,
2013-02-21 00:07:00,66.2,61.2,30.09,NW,315,0.0,3.0,84,0.00,,,0.00,meteohub,2013-02-21 05:07:00,
2013-02-21 00:13:00,66.0,61.3,30.09,NW,315,2.0,2.0,85,0.00,,,0.00,meteohub,2013-02-21 05:13:00,
2013-02-21 00:18:00,65.8,61.2,30.09,NW,315,1.0,2.0,85,0.00,,,0.00,meteohub,2013-02-21 05:18:00,
2013-02-21 00:23:00,65.7,61.3,30.09,ENE,68,0.0,2.0,86,0.00,,,0.00,meteohub,2013-02-21 05:23:00,
2013-02-21 00:28:00,65.7,61.3,30.09,NW,315,0.0,2.0,86,0.00,,,0.00,meteohub,2013-02-21 05:28:00,
2013-02-21 00:33:00,65.5,61.2,30.09,NW,315,2.0,2.0,86,0.00,,,0.00,meteohub,2013-02-21 05:33:00,
2013-02-21 00:38:00,65.5,61.2,30.08,NW,315,1.0,2.0,86,0.00,,,0.00,meteohub,2013-02-21 05:38:00,
2013-02-21 00:44:00,65.3,61.0,30.08,North,0,0.0,2.0,86,0.00,,,0.00,meteohub,2013-02-21 05:44:00,
2013-02-21 00:49:00,65.1,60.8,30.08,NW,315,0.0,2.0,86,0.00,,,0.00,meteohub,2013-02-21 05:49:00,
2013-02-21 00:54:00,65.1,60.8,30.08,NW,315,0.0,2.0,86,0.00,,,0.00,meteohub,2013-02-21 05:54:00,
2013-02-21 00:59:00,64.8,60.4,30.08,NW,315,0.0,2.0,86,0.00,,,0.00,meteohub,2013-02-21 05:59:00,
2013-02-21 01:04:00,64.6,60.6,30.08,NW,315,2.0,2.0,87,0.00,,,0.00,meteohub,2013-02-21 06:04:00,
2013-02-21 01:09:00,64.4,60.4,30.07,NW,315,0.0,1.0,87,0.00,,,0.00,meteohub,2013-02-21 06:09:00,
2013-02-21 01:14:00,64.2,59.9,30.08,NW,315,0.0,2.0,86,0.00,,,0.00,meteohub,2013-02-21 06:14:00,
2013-02-21 01:20:00,64.0,59.7,30.08,NW,315,0.0,2.0,86,0.00,,,0.00,meteohub,2013-02-21 06:20:00,
2013-02-21 01:25:00,63.7,59.7,30.07,NW,315,0.0,1.0,87,0.00,,,0.00,meteohub,2013-02-21 06:25:00,
2013-02-21 01:30:00,63.7,59.7,30.07,NE,45,0.0,2.0,87,0.00,,,0.00,meteohub,2013-02-21 06:30:00,
2013-02-21 01:35:00,63.5,59.5,30.06,NE,45,0.0,2.0,87,0.00,,,0.00,meteohub,2013-02-21 06:35:00,
2013-02-21 01:40:00,63.5,59.9,30.06,East,90,2.0,2.0,88,0.00,,,0.00,meteohub,2013-02-21 06:40:00,
2013-02-21 01:45:00,63.9,60.3,30.06,North,0,2.0,2.0,88,0.00,,,0.00,meteohub,2013-02-21 06:45:00,
2013-02-21 01:50:00,64.4,61.2,30.05,East,90,3.0,4.0,89,0.00,,,0.00,meteohub,2013-02-21 06:50:00,
2013-02-21 01:56:00,64.8,61.5,30.05,East,90,2.0,4.0,89,0.00,,,0.00,meteohub,2013-02-21 06:56:00,
2013-02-21 02:01:00,64.9,61.7,30.05,NE,45,2.0,4.0,89,0.00,,,0.00,meteohub,2013-02-21 07:01:00,
2013-02-21 02:06:00,64.9,61.7,30.05,NE,45,0.0,4.0,89,0.00,,,0.00,meteohub,2013-02-21 07:06:00,
2013-02-21 02:11:00,64.8,61.5,30.05,SE,135,1.0,2.0,89,0.00,,,0.00,meteohub,2013-02-21 07:11:00,
2013-02-21 02:16:00,64.6,61.3,30.05,East,90,2.0,2.0,89,0.00,,,0.00,meteohub,2013-02-21 07:16:00,
2013-02-21 02:21:00,64.6,61.5,30.04,East,90,1.0,2.0,90,0.00,,,0.00,meteohub,2013-02-21 07:21:00,
2013-02-21 02:27:00,64.6,61.5,30.04,NE,45,2.0,2.0,90,0.00,,,0.00,meteohub,2013-02-21 07:27:00,
2013-02-21 02:32:00,64.6,61.9,30.04,NE,45,0.0,2.0,91,0.00,,,0.00,meteohub,2013-02-21 07:32:00,
2013-02-21 02:37:00,64.6,62.2,30.04,NE,45,2.0,3.0,92,0.00,,,0.00,meteohub,2013-02-21 07:37:00,
2013-02-21 02:42:00,64.6,62.4,30.04,ENE,68,3.0,3.0,93,0.00,,,0.00,meteohub,2013-02-21 07:42:00,
2013-02-21 02:47:00,64.8,62.6,30.04,North,0,2.0,3.0,93,0.00,,,0.00,meteohub,2013-02-21 07:47:00,
2013-02-21 02:52:00,64.8,63.0,30.04,NE,45,0.0,3.0,94,0.00,,,0.00,meteohub,2013-02-21 07:52:00,
2013-02-21 02:57:00,64.6,62.8,30.04,NW,315,0.0,3.0,94,0.00,,,0.00,meteohub,2013-02-21 07:57:00,
2013-02-21 03:02:00,64.6,62.8,30.04,NW,315,2.0,2.0,94,0.00,,,0.00,meteohub,2013-02-21 08:02:00,
2013-02-21 03:07:00,64.4,63.0,30.04,NW,315,1.0,2.0,95,0.00,,,0.00,meteohub,2013-02-21 08:07:00,
2013-02-21 03:12:00,64.4,63.0,30.04,NW,315,3.0,3.0,95,0.00,,,0.00,meteohub,2013-02-21 08:12:00,
2013-02-21 03:17:00,64.4,63.0,30.04,NW,315,2.0,3.0,95,0.00,,,0.00,meteohub,2013-02-21 08:17:00,
2013-02-21 03:22:00,64.2,62.8,30.04,NW,315,3.0,3.0,95,0.00,,,0.00,meteohub,2013-02-21 08:22:00,
2013-02-21 03:27:00,64.0,62.6,30.04,NW,315,2.0,3.0,95,0.00,,,0.00,meteohub,2013-02-21 08:27:00,
2013-02-21 03:32:00,63.7,62.2,30.05,NW,315,3.0,4.0,95,0.00,,,0.00,meteohub,2013-02-21 08:32:00,
2013-02-21 03:37:00,63.5,62.1,30.04,North,0,2.0,6.0,95,0.00,,,0.00,meteohub,2013-02-21 08:37:00,
2013-02-21 03:42:00,63.3,61.9,30.04,NW,315,2.0,6.0,95,0.00,,,0.00,meteohub,2013-02-21 08:42:00,
2013-02-21 03:47:00,63.1,61.7,30.04,North,0,2.0,6.0,95,0.00,,,0.00,meteohub,2013-02-21 08:47:00,
2013-02-21 03:52:00,63.1,61.7,30.04,North,0,1.0,4.0,95,0.00,,,0.00,meteohub,2013-02-21 08:52:00,
2013-02-21 03:57:00,63.0,61.5,30.04,North,0,4.0,4.0,95,0.00,,,0.00,meteohub,2013-02-21 08:57:00,
2013-02-21 04:02:00,62.8,61.3,30.04,NW,315,1.0,4.0,95,0.00,,,0.00,meteohub,2013-02-21 09:02:00,
2013-02-21 04:07:00,62.8,61.3,30.05,NW,315,3.0,4.0,95,0.00,,,0.00,meteohub,2013-02-21 09:07:00,
2013-02-21 04:12:00,62.8,61.3,30.05,NW,315,2.0,4.0,95,0.00,,,0.00,meteohub,2013-02-21 09:12:00,
2013-02-21 04:17:00,62.8,61.3,30.05,NNW,338,2.0,4.0,95,0.00,,,0.00,meteohub,2013-02-21 09:17:00,
2013-02-21 04:22:00,62.8,61.3,30.05,NW,315,2.0,3.0,95,0.00,,,0.00,meteohub,2013-02-21 09:22:00,
2013-02-21 04:27:00,62.8,61.3,30.05,North,0,2.0,3.0,95,0.00,,,0.00,meteohub,2013-02-21 09:27:00,
2013-02-21 04:32:00,62.8,61.3,30.05,North,0,1.0,3.0,95,0.00,,,0.00,meteohub,2013-02-21 09:32:00,
2013-02-21 04:37:00,62.6,61.5,30.05,NW,315,2.0,3.0,96,0.00,,,0.00,meteohub,2013-02-21 09:37:00,
2013-02-21 04:42:00,62.6,61.5,30.05,NE,45,1.0,3.0,96,0.00,,,0.00,meteohub,2013-02-21 09:42:00,
2013-02-21 04:47:00,62.4,61.5,30.05,North,0,2.0,2.0,97,0.00,,,0.00,meteohub,2013-02-21 09:47:00,
2013-02-21 04:52:00,62.4,61.5,30.05,North,0,1.0,2.0,97,0.00,,,0.00,meteohub,2013-02-21 09:52:00,
2013-02-21 04:57:00,62.4,61.5,30.05,NW,315,2.0,4.0,97,0.00,,,0.00,meteohub,2013-02-21 09:57:00,
2013-02-21 05:02:00,62.2,61.3,30.05,NW,315,2.0,4.0,97,0.00,,,0.00,meteohub,2013-02-21 10:02:00,
2013-02-21 05:07:00,62.1,61.2,30.05,North,0,1.0,4.0,97,0.00,,,0.00,meteohub,2013-02-21 10:07:00,
2013-02-21 05:12:00,61.9,61.0,30.05,NW,315,2.0,2.0,97,0.00,,,0.00,meteohub,2013-02-21 10:12:00,
2013-02-21 05:17:00,61.9,61.0,30.04,West,270,2.0,2.0,97,0.00,,,0.00,meteohub,2013-02-21 10:17:00,
2013-02-21 05:22:00,61.9,61.0,30.05,North,0,0.0,2.0,97,0.00,,,0.00,meteohub,2013-02-21 10:22:00,
2013-02-21 05:27:00,61.9,61.0,30.05,North,0,1.0,2.0,97,0.00,,,0.00,meteohub,2013-02-21 10:27:00,
2013-02-21 05:32:00,61.9,61.0,30.05,East,90,1.0,3.0,97,0.00,,,0.00,meteohub,2013-02-21 10:32:00,
2013-02-21 05:37:00,61.9,61.3,30.05,NW,315,1.0,3.0,98,0.00,,,0.00,meteohub,2013-02-21 10:37:00,
2013-02-21 05:42:00,61.9,61.3,30.06,North,0,2.0,3.0,98,0.00,,,0.00,meteohub,2013-02-21 10:42:00,
2013-02-21 05:47:00,61.9,61.3,30.06,North,0,0.0,3.0,98,0.00,,,0.00,meteohub,2013-02-21 10:47:00,
2013-02-21 05:52:00,61.7,61.2,30.06,NW,315,1.0,2.0,98,0.00,,,0.00,meteohub,2013-02-21 10:52:00,
2013-02-21 05:57:00,61.7,61.2,30.06,North,0,2.0,2.0,98,0.00,,,0.00,meteohub,2013-02-21 10:57:00,
2013-02-21 06:02:00,61.5,61.0,30.06,WNW,293,1.0,2.0,98,0.00,,,0.00,meteohub,2013-02-21 11:02:00,
2013-02-21 06:07:00,61.5,61.0,30.06,NE,45,2.0,2.0,98,0.00,,,0.00,meteohub,2013-02-21 11:07:00,
2013-02-21 06:12:00,61.3,60.8,30.06,North,0,4.0,4.0,98,0.00,,,0.00,meteohub,2013-02-21 11:12:00,
2013-02-21 06:17:00,61.5,61.0,30.06,East,90,5.0,5.0,98,0.00,,,0.00,meteohub,2013-02-21 11:17:00,
2013-02-21 06:22:00,61.5,61.0,30.07,North,0,2.0,5.0,98,0.00,,,0.00,meteohub,2013-02-21 11:22:00,
2013-02-21 06:27:00,61.5,61.0,30.07,NW,315,1.0,5.0,98,0.00,,,0.00,meteohub,2013-02-21 11:27:00,
2013-02-21 06:32:00,61.5,61.0,30.07,North,0,3.0,5.0,98,0.00,,,0.00,meteohub,2013-02-21 11:32:00,
2013-02-21 06:37:00,61.5,61.0,30.07,North,0,1.0,4.0,98,0.00,,,0.00,meteohub,2013-02-21 11:37:00,
2013-02-21 06:42:00,61.5,61.0,30.07,NE,45,3.0,3.0,98,0.00,,,0.00,meteohub,2013-02-21 11:42:00,
2013-02-21 06:47:00,61.5,61.0,30.07,North,0,0.0,4.0,98,0.00,,,0.00,meteohub,2013-02-21 11:47:00,
2013-02-21 06:52:00,61.5,61.0,30.08,North,0,1.0,4.0,98,0.00,,,0.00,meteohub,2013-02-21 11:52:00,
2013-02-21 06:57:00,61.5,61.0,30.08,NW,315,2.0,4.0,98,0.00,,,0.00,meteohub,2013-02-21 11:57:00,
2013-02-21 07:02:00,61.5,61.0,30.08,North,0,1.0,2.0,98,0.00,,,0.00,meteohub,2013-02-21 12:02:00,
2013-02-21 07:07:00,61.7,61.2,30.08,North,0,0.0,2.0,98,0.00,,,0.00,meteohub,2013-02-21 12:07:00,
2013-02-21 07:12:00,61.7,61.2,30.09,NW,315,2.0,2.0,98,0.00,,,0.00,meteohub,2013-02-21 12:12:00,
2013-02-21 07:17:00,61.9,61.3,30.09,NW,315,2.0,2.0,98,0.00,,,0.00,meteohub,2013-02-21 12:17:00,
2013-02-21 07:22:00,61.9,61.3,30.09,North,0,3.0,3.0,98,0.00,,,0.00,meteohub,2013-02-21 12:22:00,
2013-02-21 07:27:00,61.9,61.3,30.09,NW,315,0.0,3.0,98,0.00,,,0.00,meteohub,2013-02-21 12:27:00,
2013-02-21 07:32:00,62.1,61.5,30.09,NW,315,1.0,3.0,98,0.00,,,0.00,meteohub,2013-02-21 12:32:00,
2013-02-21 07:37:00,62.1,61.5,30.09,North,0,0.0,3.0,98,0.00,,,0.00,meteohub,2013-02-21 12:37:00,
2013-02-21 07:42:00,62.2,61.7,30.10,NW,315,2.0,2.0,98,0.00,,,0.00,meteohub,2013-02-21 12:42:00,
2013-02-21 07:47:00,62.6,61.7,30.10,NW,315,2.0,2.0,97,0.00,,,0.00,meteohub,2013-02-21 12:47:00,
2013-02-21 07:52:00,62.8,61.9,30.10,NW,315,2.0,3.0,97,0.00,,,0.00,meteohub,2013-02-21 12:52:00,
2013-02-21 07:57:00,63.3,62.4,30.10,North,0,2.0,3.0,97,0.00,,,0.00,meteohub,2013-02-21 12:57:00,
2013-02-21 08:02:00,64.4,64.0,30.10,NW,315,3.0,3.0,99,0.00,,,0.00,meteohub,2013-02-21 13:02:00,
2013-02-21 08:07:00,66.7,66.4,30.10,North,0,4.0,4.0,99,0.00,,,0.00,meteohub,2013-02-21 13:07:00,
2013-02-21 08:12:00,65.8,65.5,30.10,North,0,4.0,6.0,99,0.00,,,0.00,meteohub,2013-02-21 13:12:00,
2013-02-21 08:17:00,65.5,64.6,30.11,NW,315,2.0,6.0,97,0.00,,,0.00,meteohub,2013-02-21 13:17:00,
2013-02-21 08:22:00,65.7,64.4,30.10,NW,315,2.0,6.0,96,0.00,,,0.00,meteohub,2013-02-21 13:22:00,
2013-02-21 08:27:00,65.8,64.6,30.10,NW,315,1.0,6.0,96,0.00,,,0.00,meteohub,2013-02-21 13:27:00,
2013-02-21 08:32:00,66.2,64.8,30.10,NE,45,2.0,3.0,95,0.00,,,0.00,meteohub,2013-02-21 13:32:00,
2013-02-21 08:37:00,66.7,64.9,30.10,West,270,1.0,4.0,94,0.00,,,0.00,meteohub,2013-02-21 13:37:00,
2013-02-21 08:42:00,68.7,66.0,30.10,NW,315,2.0,4.0,91,0.00,,,0.00,meteohub,2013-02-21 13:42:00,
2013-02-21 08:47:00,71.1,66.4,30.11,North,0,5.0,5.0,85,0.00,,,0.00,meteohub,2013-02-21 13:47:00,
2013-02-21 08:52:00,72.3,66.2,30.11,North,0,1.0,5.0,81,0.00,,,0.00,meteohub,2013-02-21 13:52:00,
2013-02-21 08:57:00,73.4,66.6,30.11,East,90,2.0,5.0,79,0.00,,,0.00,meteohub,2013-02-21 13:57:00,
2013-02-21 09:03:00,72.7,64.8,30.10,NE,45,2.0,5.0,76,0.00,,,0.00,meteohub,2013-02-21 14:03:00,
2013-02-21 09:08:00,73.8,66.4,30.10,NW,315,2.0,5.0,78,0.00,,,0.00,meteohub,2013-02-21 14:08:00,
2013-02-21 09:13:00,75.6,67.1,30.10,NE,45,3.0,5.0,75,0.00,,,0.00,meteohub,2013-02-21 14:13:00,
2013-02-21 09:18:00,75.7,66.9,30.10,North,0,6.0,6.0,74,0.00,,,0.00,meteohub,2013-02-21 14:18:00,
2013-02-21 09:23:00,75.4,66.6,30.11,North,0,4.0,6.0,74,0.00,,,0.00,meteohub,2013-02-21 14:23:00,
2013-02-21 09:28:00,75.2,66.7,30.11,East,90,2.0,6.0,75,0.00,,,0.00,meteohub,2013-02-21 14:28:00,
2013-02-21 09:33:00,77.0,67.6,30.11,NW,315,2.0,6.0,73,0.00,,,0.00,meteohub,2013-02-21 14:33:00,
2013-02-21 09:38:00,78.1,67.5,30.11,NW,315,4.0,6.0,70,0.00,,,0.00,meteohub,2013-02-21 14:38:00,
2013-02-21 09:44:00,78.8,67.3,30.11,NE,45,3.0,6.0,68,0.00,,,0.00,meteohub,2013-02-21 14:44:00,
2013-02-21 09:49:00,80.4,67.6,30.12,NW,315,3.0,7.0,65,0.00,,,0.00,meteohub,2013-02-21 14:49:00,
2013-02-21 09:54:00,81.0,67.1,30.12,North,0,2.0,7.0,63,0.00,,,0.00,meteohub,2013-02-21 14:54:00,
2013-02-21 09:59:00,81.7,67.8,30.11,NNE,23,4.0,7.0,63,0.00,,,0.00,meteohub,2013-02-21 14:59:00,
2013-02-21 10:04:00,82.0,67.6,30.12,NW,315,4.0,6.0,62,0.00,,,0.00,meteohub,2013-02-21 15:04:00,
2013-02-21 10:09:00,81.7,67.5,30.12,North,0,4.0,6.0,62,0.00,,,0.00,meteohub,2013-02-21 15:09:00,
2013-02-21 10:14:00,82.0,67.6,30.12,NE,45,2.0,5.0,62,0.00,,,0.00,meteohub,2013-02-21 15:14:00,
2013-02-21 10:19:00,82.6,67.8,30.12,NW,315,3.0,5.0,61,0.00,,,0.00,meteohub,2013-02-21 15:19:00,
2013-02-21 10:25:00,83.8,68.0,30.12,North,0,3.0,5.0,59,0.00,,,0.00,meteohub,2013-02-21 15:25:00,
2013-02-21 10:30:00,83.7,67.3,30.12,North,0,3.0,5.0,58,0.00,,,0.00,meteohub,2013-02-21 15:30:00,
2013-02-21 10:35:00,83.5,67.1,30.12,NE,45,5.0,5.0,58,0.00,,,0.00,meteohub,2013-02-21 15:35:00,
2013-02-21 10:40:00,85.1,68.2,30.13,NW,315,3.0,5.0,57,0.00,,,0.00,meteohub,2013-02-21 15:40:00,
2013-02-21 10:45:00,85.6,67.6,30.13,NW,315,2.0,5.0,55,0.00,,,0.00,meteohub,2013-02-21 15:45:00,
2013-02-21 10:50:00,85.6,67.1,30.12,East,90,7.0,7.0,54,0.00,,,0.00,meteohub,2013-02-21 15:50:00,
2013-02-21 10:55:00,84.2,66.7,30.12,North,0,5.0,8.0,56,0.00,,,0.00,meteohub,2013-02-21 15:55:00,
2013-02-21 11:01:00,84.0,66.6,30.12,North,0,2.0,8.0,56,0.00,,,0.00,meteohub,2013-02-21 16:01:00,
2013-02-21 11:06:00,84.9,67.5,30.12,NE,45,8.0,8.0,56,0.00,,,0.00,meteohub,2013-02-21 16:06:00,
2013-02-21 11:11:00,83.1,66.7,30.13,East,90,2.0,8.0,58,0.00,,,0.00,meteohub,2013-02-21 16:11:00,
2013-02-21 11:16:00,84.2,66.2,30.12,NE,45,5.0,8.0,55,0.00,,,0.00,meteohub,2013-02-21 16:16:00,
2013-02-21 11:21:00,85.8,67.3,30.12,East,90,6.0,8.0,54,0.00,,,0.00,meteohub,2013-02-21 16:21:00,
2013-02-21 11:26:00,85.3,66.7,30.11,ENE,68,5.0,8.0,54,0.00,,,0.00,meteohub,2013-02-21 16:26:00,
2013-02-21 11:32:00,86.9,67.1,30.12,NW,315,7.0,8.0,52,0.00,,,0.00,meteohub,2013-02-21 16:32:00,
2013-02-21 11:37:00,87.3,65.8,30.12,NE,45,4.0,8.0,49,0.00,,,0.00,meteohub,2013-02-21 16:37:00,
2013-02-21 11:42:00,85.6,65.5,30.12,ESE,113,4.0,8.0,51,0.00,,,0.00,meteohub,2013-02-21 16:42:00,
2013-02-21 11:47:00,84.6,64.9,30.11,NW,315,6.0,8.0,52,0.00,,,0.00,meteohub,2013-02-21 16:47:00,
2013-02-21 11:52:00,86.2,65.8,30.12,NE,45,3.0,8.0,51,0.00,,,0.00,meteohub,2013-02-21 16:52:00,
2013-02-21 11:57:00,87.1,66.2,30.11,NE,45,5.0,8.0,50,0.00,,,0.00,meteohub,2013-02-21 16:57:00,
2013-02-21 12:02:00,87.4,65.3,30.11,NE,45,5.0,6.0,48,0.00,,,0.00,meteohub,2013-02-21 17:02:00,
2013-02-21 12:07:00,86.7,65.8,30.10,NE,45,4.0,8.0,50,0.00,,,0.00,meteohub,2013-02-21 17:07:00,
2013-02-21 12:12:00,87.6,65.5,30.10,East,90,4.0,8.0,48,0.00,,,0.00,meteohub,2013-02-21 17:12:00,
2013-02-21 12:17:00,88.0,65.3,30.10,North,0,4.0,8.0,47,0.00,,,0.00,meteohub,2013-02-21 17:17:00,
2013-02-21 12:22:00,86.5,65.1,30.10,SE,135,4.0,5.0,49,0.00,,,0.00,meteohub,2013-02-21 17:22:00,
2013-02-21 12:27:00,86.5,65.1,30.10,North,0,2.0,5.0,49,0.00,,,0.00,meteohub,2013-02-21 17:27:00,
2013-02-21 12:32:00,86.5,65.7,30.09,North,0,3.0,7.0,50,0.00,,,0.00,meteohub,2013-02-21 17:32:00,
2013-02-21 12:37:00,86.9,64.8,30.10,East,90,2.0,7.0,48,0.00,,,0.00,meteohub,2013-02-21 17:37:00,
2013-02-21 12:42:00,85.8,64.9,30.09,NE,45,4.0,7.0,50,0.00,,,0.00,meteohub,2013-02-21 17:42:00,
2013-02-21 12:47:00,85.1,64.9,30.09,North,0,4.0,6.0,51,0.00,,,0.00,meteohub,2013-02-21 17:47:00,
2013-02-21 12:52:00,84.6,64.4,30.08,West,270,4.0,4.0,51,0.00,,,0.00,meteohub,2013-02-21 17:52:00,
2013-02-21 12:57:00,83.8,64.9,30.08,North,0,2.0,5.0,53,0.00,,,0.00,meteohub,2013-02-21 17:57:00,
2013-02-21 13:02:00,84.4,65.3,30.08,NW,315,2.0,5.0,53,0.00,,,0.00,meteohub,2013-02-21 18:02:00,
2013-02-21 13:07:00,85.1,64.9,30.07,NW,315,6.0,6.0,51,0.00,,,0.00,meteohub,2013-02-21 18:07:00,
2013-02-21 13:12:00,86.5,65.7,30.07,NW,315,2.0,6.0,50,0.00,,,0.00,meteohub,2013-02-21 18:12:00,
2013-02-21 13:17:00,87.3,65.1,30.07,NW,315,1.0,6.0,48,0.00,,,0.00,meteohub,2013-02-21 18:17:00,
2013-02-21 13:22:00,87.6,65.5,30.06,SW,225,4.0,6.0,48,0.00,,,0.00,meteohub,2013-02-21 18:22:00,
2013-02-21 13:27:00,88.5,64.4,30.06,West,270,2.0,6.0,45,0.00,,,0.00,meteohub,2013-02-21 18:27:00,
2013-02-21 13:32:00,90.0,63.9,30.06,SE,135,2.0,6.0,42,0.00,,,0.00,meteohub,2013-02-21 18:32:00,
2013-02-21 13:37:00,88.5,64.4,30.06,WSW,248,4.0,6.0,45,0.00,,,0.00,meteohub,2013-02-21 18:37:00,
2013-02-21 13:42:00,86.7,64.8,30.06,NE,45,4.0,9.0,48,0.00,,,0.00,meteohub,2013-02-21 18:42:00,
2013-02-21 13:47:00,86.2,64.8,30.06,SW,225,4.0,9.0,49,0.00,,,0.00,meteohub,2013-02-21 18:47:00,
2013-02-21 13:52:00,84.2,65.7,30.05,SE,135,2.0,9.0,54,0.00,,,0.00,meteohub,2013-02-21 18:52:00,
2013-02-21 13:57:00,85.1,67.1,30.05,SE,135,4.0,9.0,55,0.00,,,0.00,meteohub,2013-02-21 18:57:00,
2013-02-21 14:02:00,86.4,66.7,30.05,SW,225,10.0,10.0,52,0.00,,,0.00,meteohub,2013-02-21 19:02:00,
2013-02-21 14:07:00,86.5,66.2,30.04,SW,225,5.0,11.0,51,0.00,,,0.00,meteohub,2013-02-21 19:07:00,
2013-02-21 14:12:00,87.6,66.7,30.04,SW,225,6.0,11.0,50,0.00,,,0.00,meteohub,2013-02-21 19:12:00,
2013-02-21 14:18:00,87.6,66.7,30.04,West,270,11.0,11.0,50,0.00,,,0.00,meteohub,2013-02-21 19:18:00,
2013-02-21 14:23:00,87.4,65.8,30.05,SE,135,4.0,11.0,49,0.00,,,0.00,meteohub,2013-02-21 19:23:00,
2013-02-21 14:28:00,88.2,66.0,30.04,SW,225,7.0,11.0,48,0.00,,,0.00,meteohub,2013-02-21 19:28:00,
2013-02-21 14:33:00,87.3,65.1,30.04,South,180,8.0,11.0,48,0.00,,,0.00,meteohub,2013-02-21 19:33:00,
2013-02-21 14:38:00,86.5,65.7,30.04,West,270,6.0,9.0,50,0.00,,,0.00,meteohub,2013-02-21 19:38:00,
2013-02-21 14:43:00,87.1,65.7,30.05,South,180,8.0,9.0,49,0.00,,,0.00,meteohub,2013-02-21 19:43:00,
2013-02-21 14:48:00,86.2,64.8,30.04,South,180,5.0,9.0,49,0.00,,,0.00,meteohub,2013-02-21 19:48:00,
2013-02-21 14:54:00,86.7,64.8,30.04,South,180,8.0,8.0,48,0.00,,,0.00,meteohub,2013-02-21 19:54:00,
2013-02-21 14:59:00,86.9,63.7,30.04,South,180,7.0,8.0,46,0.00,,,0.00,meteohub,2013-02-21 19:59:00,
2013-02-21 15:04:00,86.2,63.0,30.04,West,270,4.0,8.0,46,0.00,,,0.00,meteohub,2013-02-21 20:04:00,
2013-02-21 15:09:00,86.2,62.4,30.04,South,180,8.0,10.0,45,0.00,,,0.00,meteohub,2013-02-21 20:09:00,
2013-02-21 15:14:00,86.4,62.4,30.04,SW,225,5.0,10.0,45,0.00,,,0.00,meteohub,2013-02-21 20:14:00,
2013-02-21 15:19:00,86.7,62.8,30.04,SW,225,8.0,10.0,45,0.00,,,0.00,meteohub,2013-02-21 20:19:00,
2013-02-21 15:25:00,86.2,62.4,30.04,SSW,203,10.0,10.0,45,0.00,,,0.00,meteohub,2013-02-21 20:25:00,
2013-02-21 15:30:00,85.8,63.3,30.04,South,180,7.0,9.0,47,0.00,,,0.00,meteohub,2013-02-21 20:30:00,
2013-02-21 15:35:00,86.2,63.0,30.04,SSW,203,6.0,11.0,46,0.00,,,0.00,meteohub,2013-02-21 20:35:00,
2013-02-21 15:40:00,86.7,62.8,30.04,SSW,203,7.0,10.0,45,0.00,,,0.00,meteohub,2013-02-21 20:40:00,
2013-02-21 15:45:00,85.5,63.0,30.04,SW,225,7.0,11.0,47,0.00,,,0.00,meteohub,2013-02-21 20:45:00,
2013-02-21 15:50:00,86.2,63.5,30.03,SSE,158,4.0,11.0,47,0.00,,,0.00,meteohub,2013-02-21 20:50:00,
2013-02-21 15:56:00,86.9,64.2,30.04,South,180,4.0,11.0,47,0.00,,,0.00,meteohub,2013-02-21 20:56:00,
2013-02-21 16:01:00,87.1,64.4,30.04,SW,225,7.0,9.0,47,0.00,,,0.00,meteohub,2013-02-21 21:01:00,
2013-02-21 16:06:00,86.2,63.5,30.03,West,270,5.0,9.0,47,0.00,,,0.00,meteohub,2013-02-21 21:06:00,
2013-02-21 16:11:00,86.4,64.4,30.04,SSE,158,3.0,9.0,48,0.00,,,0.00,meteohub,2013-02-21 21:11:00,
2013-02-21 16:16:00,86.4,64.4,30.04,South,180,7.0,8.0,48,0.00,,,0.00,meteohub,2013-02-21 21:16:00,
2013-02-21 16:21:00,86.7,64.0,30.04,South,180,4.0,7.0,47,0.00,,,0.00,meteohub,2013-02-21 21:21:00,
2013-02-21 16:26:00,86.5,64.6,30.04,SW,225,2.0,7.0,48,0.00,,,0.00,meteohub,2013-02-21 21:26:00,
2013-02-21 16:32:00,87.3,64.6,30.04,South,180,5.0,7.0,47,0.00,,,0.00,meteohub,2013-02-21 21:32:00,
2013-02-21 16:37:00,87.1,64.9,30.04,South,180,4.0,7.0,48,0.00,,,0.00,meteohub,2013-02-21 21:37:00,
2013-02-21 16:42:00,87.1,64.9,30.04,ESE,113,6.0,7.0,48,0.00,,,0.00,meteohub,2013-02-21 21:42:00,
2013-02-21 16:47:00,86.9,64.2,30.04,SE,135,4.0,6.0,47,0.00,,,0.00,meteohub,2013-02-21 21:47:00,
2013-02-21 16:52:00,86.2,64.2,30.04,SSE,158,5.0,6.0,48,0.00,,,0.00,meteohub,2013-02-21 21:52:00,
2013-02-21 16:57:00,86.2,64.2,30.04,NE,45,4.0,6.0,48,0.00,,,0.00,meteohub,2013-02-21 21:57:00,
2013-02-21 17:02:00,85.8,64.4,30.04,ESE,113,4.0,5.0,49,0.00,,,0.00,meteohub,2013-02-21 22:02:00,
2013-02-21 17:07:00,85.3,64.6,30.04,South,180,4.0,5.0,50,0.00,,,0.00,meteohub,2013-02-21 22:07:00,
2013-02-21 17:12:00,85.3,64.6,30.04,SE,135,4.0,5.0,50,0.00,,,0.00,meteohub,2013-02-21 22:12:00,
2013-02-21 17:17:00,84.4,64.2,30.04,South,180,5.0,6.0,51,0.00,,,0.00,meteohub,2013-02-21 22:17:00,
2013-02-21 17:22:00,82.9,64.0,30.03,SSW,203,4.0,7.0,53,0.00,,,0.00,meteohub,2013-02-21 22:22:00,
2013-02-21 17:27:00,81.5,63.9,30.04,SE,135,5.0,7.0,55,0.00,,,0.00,meteohub,2013-02-21 22:27:00,
2013-02-21 17:32:00,81.1,64.0,30.04,South,180,5.0,7.0,56,0.00,,,0.00,meteohub,2013-02-21 22:32:00,
2013-02-21 17:37:00,81.3,64.0,30.04,SE,135,7.0,7.0,56,0.00,,,0.00,meteohub,2013-02-21 22:37:00,
2013-02-21 17:42:00,80.8,64.0,30.03,South,180,3.0,8.0,57,0.00,,,0.00,meteohub,2013-02-21 22:42:00,
2013-02-21 17:47:00,81.1,64.4,30.03,SE,135,2.0,8.0,57,0.00,,,0.00,meteohub,2013-02-21 22:47:00,
2013-02-21 17:52:00,81.3,64.6,30.03,South,180,3.0,8.0,57,0.00,,,0.00,meteohub,2013-02-21 22:52:00,
2013-02-21 17:57:00,79.5,63.9,30.03,SE,135,2.0,5.0,59,0.00,,,0.00,meteohub,2013-02-21 22:57:00,
2013-02-21 18:02:00,78.4,64.8,30.03,South,180,3.0,5.0,63,0.00,,,0.00,meteohub,2013-02-21 23:02:00,
2013-02-21 18:07:00,77.4,64.2,30.03,SE,135,2.0,5.0,64,0.00,,,0.00,meteohub,2013-02-21 23:07:00,
2013-02-21 18:12:00,76.8,64.6,30.03,SSW,203,4.0,5.0,66,0.00,,,0.00,meteohub,2013-02-21 23:12:00,
2013-02-21 18:17:00,76.3,64.6,30.03,SE,135,2.0,7.0,67,0.00,,,0.00,meteohub,2013-02-21 23:17:00,
2013-02-21 18:22:00,75.9,64.2,30.03,South,180,1.0,7.0,67,0.00,,,0.00,meteohub,2013-02-21 23:22:00,
2013-02-21 18:27:00,75.4,63.7,30.03,NE,45,4.0,7.0,67,0.00,,,0.00,meteohub,2013-02-21 23:27:00,
2013-02-21 18:32:00,75.2,63.9,30.03,SW,225,1.0,4.0,68,0.00,,,0.00,meteohub,2013-02-21 23:32:00,
2013-02-21 18:37:00,75.0,64.2,30.04,South,180,3.0,4.0,69,0.00,,,0.00,meteohub,2013-02-21 23:37:00,
2013-02-21 18:42:00,74.7,64.6,30.04,SE,135,2.0,4.0,71,0.00,,,0.00,meteohub,2013-02-21 23:42:00,
2013-02-21 18:47:00,74.5,64.4,30.04,South,180,0.0,3.0,71,0.00,,,0.00,meteohub,2013-02-21 23:47:00,
2013-02-21 18:52:00,74.1,64.6,30.04,WNW,293,2.0,3.0,72,0.00,,,0.00,meteohub,2013-02-21 23:52:00,
2013-02-21 18:57:00,73.9,64.4,30.04,East,90,2.0,2.0,72,0.00,,,0.00,meteohub,2013-02-21 23:57:00,
2013-02-21 19:02:00,73.9,64.4,30.04,SW,225,0.0,2.0,72,0.00,,,0.00,meteohub,2013-02-22 00:02:00,
2013-02-21 19:07:00,73.6,64.4,30.04,WSW,248,3.0,3.0,73,0.00,,,0.00,meteohub,2013-02-22 00:07:00,
2013-02-21 19:12:00,73.4,64.2,30.05,SW,225,2.0,4.0,73,0.00,,,0.00,meteohub,2013-02-22 00:12:00,
2013-02-21 19:17:00,73.2,64.0,30.05,SSE,158,2.0,4.0,73,0.00,,,0.00,meteohub,2013-02-22 00:17:00,
2013-02-21 19:22:00,73.2,64.4,30.05,West,270,2.0,4.0,74,0.00,,,0.00,meteohub,2013-02-22 00:22:00,
2013-02-21 19:27:00,73.0,64.2,30.05,East,90,0.0,4.0,74,0.00,,,0.00,meteohub,2013-02-22 00:27:00,
2013-02-21 19:32:00,72.9,64.0,30.05,West,270,0.0,4.0,74,0.00,,,0.00,meteohub,2013-02-22 00:32:00,
2013-02-21 19:37:00,72.7,64.2,30.05,North,0,0.0,4.0,75,0.00,,,0.00,meteohub,2013-02-22 00:37:00,
2013-02-21 19:42:00,72.3,63.9,30.05,NE,45,1.0,4.0,75,0.00,,,0.00,meteohub,2013-02-22 00:42:00,
2013-02-21 19:47:00,72.1,64.2,30.05,SW,225,1.0,4.0,76,0.00,,,0.00,meteohub,2013-02-22 00:47:00,
2013-02-21 19:52:00,72.1,64.2,30.05,SE,135,0.0,3.0,76,0.00,,,0.00,meteohub,2013-02-22 00:52:00,
2013-02-21 19:57:00,72.0,64.0,30.05,NE,45,2.0,3.0,76,0.00,,,0.00,meteohub,2013-02-22 00:57:00,
2013-02-21 20:02:00,72.3,64.8,30.05,SE,135,1.0,3.0,77,0.00,,,0.00,meteohub,2013-02-22 01:02:00,
2013-02-21 20:07:00,72.3,64.8,30.06,East,90,1.0,3.0,77,0.00,,,0.00,meteohub,2013-02-22 01:07:00,
2013-02-21 20:12:00,72.3,64.8,30.06,NW,315,0.0,3.0,77,0.00,,,0.00,meteohub,2013-02-22 01:12:00,
2013-02-21 20:17:00,72.3,64.8,30.06,South,180,2.0,3.0,77,0.00,,,0.00,meteohub,2013-02-22 01:17:00,
2013-02-21 20:22:00,72.3,64.8,30.06,East,90,1.0,3.0,77,0.00,,,0.00,meteohub,2013-02-22 01:22:00,
2013-02-21 20:27:00,72.1,64.6,30.06,East,90,0.0,2.0,77,0.00,,,0.00,meteohub,2013-02-22 01:27:00,
2013-02-21 20:32:00,72.0,64.4,30.06,East,90,0.0,2.0,77,0.00,,,0.00,meteohub,2013-02-22 01:32:00,
2013-02-21 20:37:00,71.8,64.6,30.06,East,90,1.0,1.0,78,0.00,,,0.00,meteohub,2013-02-22 01:37:00,
2013-02-21 20:43:00,71.8,64.6,30.06,South,180,0.0,1.0,78,0.00,,,0.00,meteohub,2013-02-22 01:43:00,
2013-02-21 20:48:00,71.8,64.9,30.06,SE,135,0.0,2.0,79,0.00,,,0.00,meteohub,2013-02-22 01:48:00,
2013-02-21 20:53:00,71.8,64.9,30.06,SE,135,0.0,2.0,79,0.00,,,0.00,meteohub,2013-02-22 01:53:00,
2013-02-21 20:58:00,71.4,64.9,30.06,East,90,0.0,2.0,80,0.00,,,0.00,meteohub,2013-02-22 01:58:00,
2013-02-21 21:03:00,71.4,65.3,30.06,East,90,0.0,1.0,81,0.00,,,0.00,meteohub,2013-02-22 02:03:00,
2013-02-21 21:08:00,71.4,65.3,30.07,NE,45,0.0,2.0,81,0.00,,,0.00,meteohub,2013-02-22 02:08:00,
2013-02-21 21:13:00,71.4,65.3,30.06,NW,315,0.0,2.0,81,0.00,,,0.00,meteohub,2013-02-22 02:13:00,
2013-02-21 21:19:00,71.2,65.1,30.06,NE,45,0.0,2.0,81,0.00,,,0.00,meteohub,2013-02-22 02:19:00,
2013-02-21 21:24:00,71.1,65.3,30.07,East,90,0.0,2.0,82,0.00,,,0.00,meteohub,2013-02-22 02:24:00,
2013-02-21 21:29:00,71.1,65.3,30.07,East,90,0.0,0.0,82,0.00,,,0.00,meteohub,2013-02-22 02:29:00,
2013-02-21 21:34:00,70.7,65.3,30.07,East,90,0.0,2.0,83,0.00,,,0.00,meteohub,2013-02-22 02:34:00,
2013-02-21 21:39:00,70.5,65.1,30.07,NE,45,2.0,2.0,83,0.00,,,0.00,meteohub,2013-02-22 02:39:00,
2013-02-21 21:44:00,70.5,65.5,30.07,NE,45,2.0,2.0,84,0.00,,,0.00,meteohub,2013-02-22 02:44:00,
2013-02-21 21:49:00,70.5,65.5,30.07,NE,45,2.0,3.0,84,0.00,,,0.00,meteohub,2013-02-22 02:49:00,
2013-02-21 21:55:00,70.2,65.1,30.08,NE,45,0.0,3.0,84,0.00,,,0.00,meteohub,2013-02-22 02:55:00,
2013-02-21 22:00:00,70.2,65.1,30.08,North,0,2.0,3.0,84,0.00,,,0.00,meteohub,2013-02-22 03:00:00,
2013-02-21 22:05:00,70.2,65.1,30.07,NE,45,2.0,2.0,84,0.00,,,0.00,meteohub,2013-02-22 03:05:00,
2013-02-21 22:10:00,70.2,65.1,30.07,North,0,1.0,2.0,84,0.00,,,0.00,meteohub,2013-02-22 03:10:00,
2013-02-21 22:15:00,70.2,65.1,30.08,North,0,0.0,2.0,84,0.00,,,0.00,meteohub,2013-02-22 03:15:00,
2013-02-21 22:20:00,70.0,64.9,30.07,ENE,68,3.0,3.0,84,0.00,,,0.00,meteohub,2013-02-22 03:20:00,
2013-02-21 22:26:00,70.0,64.9,30.07,North,0,2.0,3.0,84,0.00,,,0.00,meteohub,2013-02-22 03:26:00,
2013-02-21 22:31:00,69.8,64.8,30.08,North,0,0.0,3.0,84,0.00,,,0.00,meteohub,2013-02-22 03:31:00,
2013-02-21 22:36:00,69.6,65.3,30.08,North,0,1.0,3.0,86,0.00,,,0.00,meteohub,2013-02-22 03:36:00,
2013-02-21 22:41:00,69.3,64.9,30.08,NE,45,2.0,2.0,86,0.00,,,0.00,meteohub,2013-02-22 03:41:00,
2013-02-21 22:46:00,69.1,64.8,30.08,SE,135,1.0,2.0,86,0.00,,,0.00,meteohub,2013-02-22 03:46:00,
2013-02-21 22:51:00,68.9,64.6,30.08,NE,45,0.0,2.0,86,0.00,,,0.00,meteohub,2013-02-22 03:51:00,
2013-02-21 22:56:00,68.5,64.2,30.08,North,0,0.0,2.0,86,0.00,,,0.00,meteohub,2013-02-22 03:56:00,
2013-02-21 23:02:00,68.4,64.0,30.08,North,0,0.0,2.0,86,0.00,,,0.00,meteohub,2013-02-22 04:02:00,
2013-02-21 23:07:00,68.4,64.0,30.09,North,0,0.0,2.0,86,0.00,,,0.00,meteohub,2013-02-22 04:07:00,
2013-02-21 23:12:00,67.8,64.2,30.08,North,0,0.0,0.0,88,0.00,,,0.00,meteohub,2013-02-22 04:12:00,
2013-02-21 23:17:00,67.6,64.0,30.09,North,0,0.0,0.0,88,0.00,,,0.00,meteohub,2013-02-22 04:17:00,
2013-02-21 23:22:00,67.5,64.0,30.09,North,0,0.0,0.0,89,0.00,,,0.00,meteohub,2013-02-22 04:22:00,
2013-02-21 23:27:00,67.3,63.9,30.09,NE,45,0.0,0.0,89,0.00,,,0.00,meteohub,2013-02-22 04:27:00,
2013-02-21 23:32:00,67.5,64.0,30.09,North,0,2.0,2.0,89,0.00,,,0.00,meteohub,2013-02-22 04:32:00,
2013-02-21 23:37:00,67.6,64.6,30.08,NE,45,0.0,2.0,90,0.00,,,0.00,meteohub,2013-02-22 04:37:00,
2013-02-21 23:42:00,67.8,64.4,30.08,NE,45,0.0,2.0,89,0.00,,,0.00,meteohub,2013-02-22 04:42:00,
2013-02-21 23:47:00,67.8,64.4,30.08,North,0,1.0,2.0,89,0.00,,,0.00,meteohub,2013-02-22 04:47:00,
2013-02-21 23:52:00,68.0,64.4,30.08,NE,45,2.0,2.0,88,0.00,,,0.00,meteohub,2013-02-22 04:52:00,
2013-02-21 23:57:00,68.0,64.4,30.08,NE,45,2.0,3.0,88,0.00,,,0.00,meteohub,2013-02-22 04:57:00,